Language: 


Des rapports , des résumés tant et plus, au choix de chacun....


Données Historiques de Météogheer
Journalier Rapport pour Septembre 30, 2017 Unitée:  Métrique    Impériale   Les deux
Suivant Jour »
Journalier Hebdomadaire Mensuel Annuel Sur mesure
  Max: Min: Moyenne:
Température: 20.9 °C 12.6 °C 15.3 °C
Point de rosée: 15.0 °C 8.0 °C 12.1 °C
Humidité: 98% 48% 83%
Vent: 12.2km/h 0.0km/h 2.8km/h
Rafales: 13.7km/h - -
Vent- - West
Pression: 1018.8 hPa 1016.1 hPa -
Pluie: 0.0 mm    
Historical Graphs
 
 
Données tabulaires pour Septembre 30, 2017
Heure Température Point de rosée Pression Vent Vent Rafales Humidité Pluie Taux (Horaire) Conditions
00:01 15.7 °C 15.0 °C 1018.2 hPa West 9.0 km/h 13.0 km/h 93% 0.0 mm
00:06 15.7 °C 15.0 °C 1018.2 hPa WSW 6.4 km/h 11.9 km/h 93% 0.0 mm
00:12 15.5 °C 15.0 °C 1018.2 hPa WSW 5.8 km/h 11.9 km/h 93% 0.0 mm
00:17 15.5 °C 15.0 °C 1016.8 hPa Calm   10.5 km/h 93% 0.0 mm
00:22 15.5 °C 15.0 °C 1016.8 hPa Calm   6.9 km/h 93% 0.0 mm
00:27 15.5 °C 15.0 °C 1016.8 hPa West 10.1 km/h 12.2 km/h 93% 0.0 mm
00:32 15.5 °C 15.0 °C 1018.2 hPa WSW 3.5 km/h 12.2 km/h 93% 0.0 mm
00:37 15.4 °C 14.0 °C 1018.2 hPa West 9.0 km/h 10.5 km/h 93% 0.0 mm
00:42 15.3 °C 14.0 °C 1018.2 hPa West 9.3 km/h 10.5 km/h 94% 0.0 mm
00:47 15.2 °C 14.0 °C 1018.2 hPa WSW 9.3 km/h 13.7 km/h 94% 0.0 mm
00:51 15.2 °C 14.0 °C 1018.2 hPa WSW 6.1 km/h 13.7 km/h 94% 0.0 mm
00:56 15.1 °C 14.0 °C 1018.2 hPa West 5.8 km/h 10.5 km/h 94% 0.0 mm
01:01 15.1 °C 14.0 °C 1016.8 hPa Calm   9.3 km/h 94% 0.0 mm
01:03 15.1 °C 14.0 °C 1016.8 hPa WNW 1.8 km/h 9.3 km/h 94% 0.0 mm
01:08 15.1 °C 14.0 °C 1016.8 hPa Calm   6.9 km/h 95% 0.0 mm
01:13 15.0 °C 14.0 °C 1016.8 hPa Calm   6.9 km/h 95% 0.0 mm
01:18 15.0 °C 14.0 °C 1016.8 hPa Calm   5.0 km/h 94% 0.0 mm
01:24 15.0 °C 14.0 °C 1016.8 hPa West 1.8 km/h 5.0 km/h 95% 0.0 mm
01:29 15.0 °C 14.0 °C 1016.8 hPa WNW 4.7 km/h 5.0 km/h 95% 0.0 mm
01:34 15.0 °C 14.0 °C 1016.8 hPa Calm   5.0 km/h 95% 0.0 mm
01:39 14.8 °C 14.0 °C 1016.8 hPa Calm   5.5 km/h 95% 0.0 mm
01:44 14.7 °C 14.0 °C 1016.8 hPa Calm   5.5 km/h 95% 0.0 mm
01:49 14.7 °C 14.0 °C 1016.8 hPa Calm   4.3 km/h 95% 0.0 mm
01:54 14.6 °C 14.0 °C 1016.8 hPa Calm   3.2 km/h 95% 0.0 mm
01:59 14.6 °C 14.0 °C 1016.8 hPa Calm     95% 0.0 mm
02:04 14.5 °C 14.0 °C 1016.1 hPa West 5.0 km/h 5.0 km/h 95% 0.0 mm
02:09 14.4 °C 14.0 °C 1016.1 hPa Calm   5.5 km/h 96% 0.0 mm
02:14 14.3 °C 14.0 °C 1016.1 hPa Calm   5.5 km/h 96% 0.0 mm
02:19 14.3 °C 14.0 °C 1018.2 hPa Calm     96% 0.0 mm
02:24 14.3 °C 14.0 °C 1018.2 hPa West 7.2 km/h 7.2 km/h 96% 0.0 mm
02:29 14.2 °C 14.0 °C 1018.2 hPa Calm   7.2 km/h 96% 0.0 mm
02:34 14.2 °C 14.0 °C 1016.8 hPa Calm   7.2 km/h 96% 0.0 mm
02:39 14.2 °C 14.0 °C 1016.8 hPa Calm     96% 0.0 mm
02:44 14.1 °C 14.0 °C 1016.8 hPa Calm     96% 0.0 mm
02:49 14.2 °C 14.0 °C 1016.1 hPa Calm   6.9 km/h 96% 0.0 mm
02:54 14.2 °C 14.0 °C 1016.1 hPa Calm   8.7 km/h 96% 0.0 mm
02:59 14.2 °C 14.0 °C 1016.1 hPa West 3.5 km/h 8.7 km/h 96% 0.0 mm
03:04 14.2 °C 14.0 °C 1016.8 hPa WNW 5.0 km/h 6.9 km/h 96% 0.0 mm
03:09 14.2 °C 14.0 °C 1016.8 hPa West 4.0 km/h 6.9 km/h 96% 0.0 mm
03:14 14.2 °C 14.0 °C 1016.8 hPa WSW 6.1 km/h 6.4 km/h 96% 0.0 mm
03:19 14.2 °C 14.0 °C 1016.1 hPa Calm   6.4 km/h 96% 0.0 mm
03:24 14.2 °C 14.0 °C 1016.1 hPa Calm   6.4 km/h 96% 0.0 mm
03:29 14.2 °C 14.0 °C 1016.1 hPa West 5.5 km/h 6.1 km/h 96% 0.0 mm
03:34 14.2 °C 14.0 °C 1016.8 hPa Calm   6.1 km/h 96% 0.0 mm
03:40 14.2 °C 14.0 °C 1016.8 hPa Calm   5.8 km/h 96% 0.0 mm
03:45 14.1 °C 14.0 °C 1016.8 hPa NW 3.5 km/h 3.5 km/h 96% 0.0 mm
03:50 14.1 °C 14.0 °C 1016.8 hPa West 6.1 km/h 7.9 km/h 96% 0.0 mm
03:55 14.0 °C 14.0 °C 1016.8 hPa West 5.0 km/h 8.7 km/h 96% 0.0 mm
04:00 13.9 °C 14.0 °C 1016.8 hPa Calm   8.7 km/h 96% 0.0 mm
04:05 13.8 °C 13.0 °C 1016.8 hPa Calm   5.8 km/h 96% 0.0 mm
04:10 13.6 °C 13.0 °C 1016.8 hPa Calm   2.6 km/h 96% 0.0 mm
04:15 13.6 °C 13.0 °C 1016.8 hPa Calm   2.6 km/h 96% 0.0 mm
04:20 13.6 °C 13.0 °C 1016.8 hPa Calm   2.6 km/h 96% 0.0 mm
04:25 13.4 °C 13.0 °C 1016.8 hPa Calm   1.8 km/h 96% 0.0 mm
04:30 13.4 °C 13.0 °C 1016.8 hPa Calm   2.1 km/h 96% 0.0 mm
04:35 13.3 °C 13.0 °C 1016.8 hPa Calm   2.1 km/h 97% 0.0 mm
04:40 13.3 °C 13.0 °C 1016.8 hPa Calm   4.7 km/h 97% 0.0 mm
04:45 13.2 °C 13.0 °C 1016.8 hPa Calm   4.7 km/h 97% 0.0 mm
04:50 13.1 °C 13.0 °C 1016.8 hPa Calm     97% 0.0 mm
04:55 13.0 °C 13.0 °C 1016.8 hPa Calm     97% 0.0 mm
05:00 12.9 °C 13.0 °C 1016.8 hPa Calm     97% 0.0 mm
05:05 13.0 °C 13.0 °C 1016.8 hPa Calm   2.1 km/h 97% 0.0 mm
05:10 13.1 °C 13.0 °C 1016.8 hPa Calm   2.1 km/h 98% 0.0 mm
05:15 13.1 °C 13.0 °C 1016.8 hPa Calm     98% 0.0 mm
05:20 13.2 °C 13.0 °C 1016.8 hPa Calm     98% 0.0 mm
05:25 13.2 °C 13.0 °C 1016.8 hPa Calm     98% 0.0 mm
05:30 13.2 °C 13.0 °C 1016.8 hPa West 4.7 km/h 4.7 km/h 98% 0.0 mm
05:35 13.2 °C 13.0 °C 1016.8 hPa WNW 3.5 km/h 4.7 km/h 98% 0.0 mm
05:40 13.2 °C 13.0 °C 1016.8 hPa Calm   4.7 km/h 98% 0.0 mm
05:46 13.2 °C 13.0 °C 1018.2 hPa Calm   4.3 km/h 98% 0.0 mm
05:50 13.2 °C 13.0 °C 1018.2 hPa Calm     98% 0.0 mm
05:56 13.1 °C 13.0 °C 1018.2 hPa Calm     98% 0.0 mm
06:01 13.0 °C 13.0 °C 1016.8 hPa Calm     98% 0.0 mm
06:06 13.0 °C 13.0 °C 1016.8 hPa Calm     98% 0.0 mm
06:11 13.1 °C 13.0 °C 1016.8 hPa Calm     98% 0.0 mm
06:16 13.1 °C 13.0 °C 1016.8 hPa Calm     98% 0.0 mm
06:21 13.1 °C 13.0 °C 1016.8 hPa Calm     98% 0.0 mm
06:26 13.1 °C 13.0 °C 1016.8 hPa Calm     98% 0.0 mm
06:28 13.1 °C 13.0 °C 1016.8 hPa Calm     98% 0.0 mm
06:33 13.1 °C 13.0 °C 1016.8 hPa Calm     98% 0.0 mm
06:38 13.1 °C 13.0 °C 1016.8 hPa Calm     98% 0.0 mm
06:43 13.2 °C 13.0 °C 1016.8 hPa Calm     98% 0.0 mm
06:48 13.2 °C 13.0 °C 1016.8 hPa West 1.4 km/h 1.4 km/h 98% 0.0 mm
06:54 13.2 °C 13.0 °C 1016.8 hPa Calm   1.4 km/h 98% 0.0 mm
06:59 13.1 °C 13.0 °C 1016.8 hPa Calm     98% 0.0 mm
07:04 13.1 °C 13.0 °C 1016.8 hPa Calm     98% 0.0 mm
07:09 13.1 °C 13.0 °C 1016.8 hPa Calm     98% 0.0 mm
07:14 13.0 °C 13.0 °C 1016.8 hPa Calm     98% 0.0 mm
07:19 13.0 °C 13.0 °C 1016.8 hPa Calm   1.4 km/h 98% 0.0 mm
07:24 13.0 °C 13.0 °C 1016.8 hPa Calm   1.4 km/h 98% 0.0 mm
07:29 13.0 °C 13.0 °C 1016.8 hPa Calm     98% 0.0 mm
07:34 12.8 °C 13.0 °C 1016.8 hPa Calm     98% 0.0 mm
07:39 12.7 °C 13.0 °C 1016.8 hPa Calm     98% 0.0 mm
07:44 12.7 °C 13.0 °C 1016.8 hPa Calm     98% 0.0 mm
07:49 12.7 °C 13.0 °C 1016.8 hPa Calm     98% 0.0 mm
07:54 12.6 °C 13.0 °C 1016.8 hPa Calm     98% 0.0 mm
07:59 12.6 °C 13.0 °C 1016.8 hPa Calm     98% 0.0 mm
08:04 12.7 °C 13.0 °C 1016.8 hPa Calm     98% 0.0 mm
08:09 12.8 °C 13.0 °C 1016.8 hPa Calm     98% 0.0 mm
08:14 12.8 °C 13.0 °C 1016.8 hPa Calm     98% 0.0 mm
08:19 12.9 °C 13.0 °C 1016.8 hPa Calm     98% 0.0 mm
08:24 12.9 °C 13.0 °C 1016.8 hPa Calm     98% 0.0 mm
08:29 12.9 °C 13.0 °C 1016.8 hPa Calm     98% 0.0 mm
08:34 12.9 °C 13.0 °C 1016.1 hPa Calm     98% 0.0 mm
08:44 12.9 °C 13.0 °C 1016.1 hPa Calm     98% 0.0 mm
08:49 12.9 °C 13.0 °C 1016.8 hPa Calm     98% 0.0 mm
08:54 13.0 °C 13.0 °C 1016.8 hPa Calm     98% 0.0 mm
08:59 13.0 °C 13.0 °C 1016.8 hPa Calm     98% 0.0 mm
09:04 13.0 °C 13.0 °C 1016.8 hPa Calm     98% 0.0 mm
09:14 13.3 °C 13.0 °C 1016.8 hPa Calm     98% 0.0 mm
09:19 13.3 °C 13.0 °C 1016.1 hPa Calm     98% 0.0 mm
09:24 13.5 °C 14.0 °C 1016.1 hPa WNW 1.8 km/h 3.5 km/h 98% 0.0 mm
09:29 13.5 °C 14.0 °C 1016.1 hPa Calm   4.0 km/h 98% 0.0 mm
09:34 13.5 °C 14.0 °C 1016.8 hPa West 1.8 km/h 4.0 km/h 98% 0.0 mm
09:39 13.6 °C 14.0 °C 1016.8 hPa Calm   4.0 km/h 98% 0.0 mm
09:44 13.7 °C 14.0 °C 1016.8 hPa Calm   3.2 km/h 98% 0.0 mm
09:49 13.7 °C 14.0 °C 1016.8 hPa Calm   5.5 km/h 98% 0.0 mm
09:54 13.7 °C 14.0 °C 1016.8 hPa Calm   5.5 km/h 98% 0.0 mm
09:59 13.8 °C 14.0 °C 1016.8 hPa Calm   5.8 km/h 98% 0.0 mm
10:04 13.9 °C 14.0 °C 1016.8 hPa Calm   5.8 km/h 98% 0.0 mm
10:09 14.0 °C 14.0 °C 1016.8 hPa Calm     98% 0.0 mm
10:14 14.1 °C 14.0 °C 1016.8 hPa West 6.9 km/h 6.9 km/h 98% 0.0 mm
10:19 14.2 °C 14.0 °C 1016.8 hPa WSW 6.9 km/h 9.7 km/h 98% 0.0 mm
10:24 14.3 °C 14.0 °C 1016.8 hPa West 10.5 km/h 12.6 km/h 98% 0.0 mm
10:29 14.4 °C 14.0 °C 1016.8 hPa West 9.7 km/h 12.6 km/h 98% 0.0 mm
10:34 14.5 °C 15.0 °C 1016.8 hPa West 12.2 km/h 12.2 km/h 98% 0.0 mm
10:39 14.6 °C 15.0 °C 1016.8 hPa West 10.1 km/h 13.0 km/h 98% 0.0 mm
10:44 14.7 °C 15.0 °C 1016.8 hPa West 6.4 km/h 13.0 km/h 98% 0.0 mm
10:49 14.7 °C 15.0 °C 1016.8 hPa West 6.1 km/h 10.5 km/h 98% 0.0 mm
10:54 15.0 °C 15.0 °C 1016.8 hPa WSW 10.5 km/h 10.5 km/h 97% 0.0 mm
10:59 15.1 °C 15.0 °C 1016.8 hPa West 6.4 km/h 10.5 km/h 97% 0.0 mm
11:04 15.2 °C 15.0 °C 1016.8 hPa West 9.0 km/h 12.6 km/h 97% 0.0 mm
11:09 15.3 °C 15.0 °C 1016.8 hPa West 9.7 km/h 12.6 km/h 97% 0.0 mm
11:14 15.4 °C 15.0 °C 1016.8 hPa West 10.5 km/h 12.2 km/h 96% 0.0 mm
11:19 15.7 °C 15.0 °C 1016.8 hPa WSW 10.5 km/h 12.2 km/h 96% 0.0 mm
11:26 16.0 °C 15.0 °C 1016.8 hPa West 8.7 km/h 11.6 km/h 95% 0.0 mm
11:31 16.1 °C 15.0 °C 1018.2 hPa West 8.7 km/h 13.7 km/h 94% 0.0 mm
11:36 16.2 °C 15.0 °C 1018.2 hPa West 9.0 km/h 13.7 km/h 94% 0.0 mm
11:41 16.3 °C 15.0 °C 1018.2 hPa West 6.1 km/h 10.5 km/h 94% 0.0 mm
11:46 16.2 °C 15.0 °C 1016.8 hPa West 5.5 km/h 9.3 km/h 92% 0.0 mm
11:51 16.3 °C 15.0 °C 1016.8 hPa West 5.5 km/h 7.9 km/h 91% 0.0 mm
11:56 16.3 °C 15.0 °C 1016.8 hPa West 5.5 km/h 5.5 km/h 90% 0.0 mm
12:01 16.2 °C 15.0 °C 1016.8 hPa West 5.5 km/h 5.5 km/h 90% 0.0 mm
12:06 16.2 °C 15.0 °C 1016.8 hPa West 5.5 km/h 5.5 km/h 90% 0.0 mm
12:11 16.1 °C 14.0 °C 1016.8 hPa West 5.5 km/h 5.5 km/h 89% 0.0 mm
12:16 16.2 °C 14.0 °C 1016.8 hPa West 5.5 km/h 5.5 km/h 88% 0.0 mm
12:21 16.1 °C 14.0 °C 1016.8 hPa West 5.5 km/h 5.5 km/h 87% 0.0 mm
12:26 16.1 °C 14.0 °C 1016.8 hPa West 5.5 km/h 5.5 km/h 86% 0.0 mm
12:31 16.3 °C 14.0 °C 1016.8 hPa West 5.5 km/h 5.5 km/h 87% 0.0 mm
12:36 16.3 °C 14.0 °C 1016.8 hPa West 5.5 km/h 5.5 km/h 86% 0.0 mm
12:41 16.1 °C 14.0 °C 1016.8 hPa West 5.5 km/h 5.5 km/h 86% 0.0 mm
12:46 16.1 °C 14.0 °C 1016.8 hPa West 5.5 km/h 5.5 km/h 86% 0.0 mm
12:51 16.1 °C 14.0 °C 1016.8 hPa West 5.5 km/h 5.5 km/h 85% 0.0 mm
12:56 16.2 °C 13.0 °C 1016.8 hPa West 5.5 km/h 5.5 km/h 83% 0.0 mm
13:01 16.2 °C 13.0 °C 1016.8 hPa West 5.5 km/h 5.5 km/h 83% 0.0 mm
13:06 16.3 °C 13.0 °C 1016.8 hPa West 5.5 km/h 5.5 km/h 83% 0.0 mm
13:11 16.3 °C 13.0 °C 1016.8 hPa West 5.5 km/h 5.5 km/h 82% 0.0 mm
13:16 16.5 °C 13.0 °C 1016.8 hPa West 5.5 km/h 5.5 km/h 80% 0.0 mm
13:21 16.7 °C 13.0 °C 1016.8 hPa West 5.5 km/h 5.5 km/h 80% 0.0 mm
13:26 17.1 °C 13.0 °C 1016.8 hPa West 5.5 km/h 5.5 km/h 76% 0.0 mm
13:32 17.7 °C 13.0 °C 1018.2 hPa West 5.5 km/h 5.5 km/h 74% 0.0 mm
13:37 18.3 °C 13.0 °C 1018.2 hPa West 5.5 km/h 5.5 km/h 73% 0.0 mm
13:42 18.8 °C 13.0 °C 1018.2 hPa West 5.5 km/h 5.5 km/h 70% 0.0 mm
13:47 18.7 °C 12.0 °C 1016.8 hPa West 5.5 km/h 5.5 km/h 66% 0.0 mm
13:52 19.2 °C 13.0 °C 1016.8 hPa West 5.5 km/h 5.5 km/h 67% 0.0 mm
13:57 19.5 °C 13.0 °C 1016.8 hPa West 5.5 km/h 5.5 km/h 66% 0.0 mm
14:02 19.7 °C 12.0 °C 1016.8 hPa West 5.5 km/h 5.5 km/h 62% 0.0 mm
14:07 19.4 °C 11.0 °C 1016.8 hPa West 5.5 km/h 5.5 km/h 59% 0.0 mm
14:12 19.3 °C 11.0 °C 1016.8 hPa West 5.5 km/h 5.5 km/h 58% 0.0 mm
14:17 19.3 °C 10.0 °C 1016.8 hPa West 5.5 km/h 5.5 km/h 55% 0.0 mm
14:22 19.5 °C 10.0 °C 1016.8 hPa West 5.5 km/h 5.5 km/h 54% 0.0 mm
14:27 19.3 °C 10.0 °C 1016.8 hPa West 5.5 km/h 5.5 km/h 55% 0.0 mm
14:32 19.2 °C 10.0 °C 1016.8 hPa West 5.5 km/h 5.5 km/h 54% 0.0 mm
14:37 18.2 °C 9.0 °C 1016.8 hPa West 5.5 km/h 5.5 km/h 54% 0.0 mm
14:42 18.1 °C 9.0 °C 1016.8 hPa West 5.5 km/h 5.5 km/h 55% 0.0 mm
14:47 18.6 °C 9.0 °C 1016.8 hPa West 5.5 km/h 5.5 km/h 55% 0.0 mm
14:52 18.5 °C 9.0 °C 1016.8 hPa West 5.5 km/h 5.5 km/h 54% 0.0 mm
14:57 18.7 °C 9.0 °C 1016.8 hPa West 5.5 km/h 5.5 km/h 55% 0.0 mm
15:02 19.2 °C 10.0 °C 1016.8 hPa West 5.5 km/h 5.5 km/h 55% 0.0 mm
15:07 19.5 °C 9.0 °C 1016.8 hPa West 5.5 km/h 5.5 km/h 51% 0.0 mm
15:12 19.8 °C 10.0 °C 1016.8 hPa West 5.5 km/h 5.5 km/h 53% 0.0 mm
15:17 20.1 °C 10.0 °C 1016.8 hPa West 5.5 km/h 5.5 km/h 51% 0.0 mm
15:22 20.0 °C 9.0 °C 1016.8 hPa West 5.5 km/h 5.5 km/h 49% 0.0 mm
15:27 20.0 °C 9.0 °C 1016.8 hPa West 5.5 km/h 5.5 km/h 50% 0.0 mm
15:32 20.3 °C 10.0 °C 1016.8 hPa West 5.5 km/h 5.5 km/h 51% 0.0 mm
15:37 20.4 °C 10.0 °C 1016.8 hPa West 5.5 km/h 5.5 km/h 52% 0.0 mm
15:42 20.4 °C 9.0 °C 1016.8 hPa West 5.5 km/h 5.5 km/h 49% 0.0 mm
15:47 20.5 °C 10.0 °C 1016.8 hPa West 5.5 km/h 5.5 km/h 50% 0.0 mm
15:51 20.4 °C 9.0 °C 1016.8 hPa West 5.5 km/h 5.5 km/h 49% 0.0 mm
15:56 20.4 °C 9.0 °C 1016.8 hPa West 5.5 km/h 5.5 km/h 49% 0.0 mm
16:01 20.9 °C 10.0 °C 1016.8 hPa West 5.5 km/h 5.5 km/h 50% 0.0 mm
16:06 20.3 °C 9.0 °C 1016.8 hPa West 5.5 km/h 5.5 km/h 48% 0.0 mm
16:11 20.4 °C 9.0 °C 1016.8 hPa West 5.5 km/h 5.5 km/h 48% 0.0 mm
16:16 19.5 °C 9.0 °C 1016.8 hPa West 5.5 km/h 5.5 km/h 49% 0.0 mm
16:21 18.8 °C 9.0 °C 1016.8 hPa West 5.5 km/h 5.5 km/h 51% 0.0 mm
16:26 18.7 °C 9.0 °C 1016.8 hPa West 5.5 km/h 5.5 km/h 53% 0.0 mm
16:31 18.6 °C 9.0 °C 1016.8 hPa West 5.5 km/h 5.5 km/h 53% 0.0 mm
16:36 18.6 °C 9.0 °C 1016.8 hPa West 5.5 km/h 5.5 km/h 55% 0.0 mm
16:38 19.0 °C 10.0 °C 1016.8 hPa West 5.5 km/h 5.5 km/h 55% 0.0 mm
16:43 20.0 °C 11.0 °C 1016.8 hPa West 5.5 km/h 5.5 km/h 56% 0.0 mm
16:48 20.1 °C 10.0 °C 1016.8 hPa West 5.5 km/h 5.5 km/h 51% 0.0 mm
16:49 20.1 °C 10.0 °C 1016.8 hPa West 5.5 km/h 5.5 km/h 51% 0.0 mm
16:54 20.0 °C 10.0 °C 1016.8 hPa West 5.5 km/h 5.5 km/h 51% 0.0 mm
16:59 20.3 °C 10.0 °C 1016.8 hPa West 5.5 km/h 5.5 km/h 51% 0.0 mm
17:04 20.1 °C 9.0 °C 1016.8 hPa West 5.5 km/h 5.5 km/h 49% 0.0 mm
17:09 20.0 °C 9.0 °C 1016.8 hPa West 5.5 km/h 5.5 km/h 49% 0.0 mm
17:14 19.9 °C 9.0 °C 1016.8 hPa West 5.5 km/h 5.5 km/h 50% 0.0 mm
17:19 19.3 °C 9.0 °C 1016.1 hPa West 5.5 km/h 5.5 km/h 49% 0.0 mm
17:24 19.1 °C 8.0 °C 1016.1 hPa West 5.5 km/h 5.5 km/h 49% 0.0 mm
17:29 18.8 °C 9.0 °C 1016.1 hPa West 5.5 km/h 5.5 km/h 52% 0.0 mm
17:34 18.8 °C 9.0 °C 1016.8 hPa West 5.5 km/h 5.5 km/h 53% 0.0 mm
17:39 18.6 °C 9.0 °C 1016.8 hPa West 5.5 km/h 5.5 km/h 53% 0.0 mm
17:44 18.2 °C 8.0 °C 1016.8 hPa West 5.5 km/h 5.5 km/h 51% 0.0 mm
17:49 17.8 °C 9.0 °C 1016.8 hPa West 5.5 km/h 5.5 km/h 54% 0.0 mm
17:54 17.4 °C 8.0 °C 1016.8 hPa West 5.5 km/h 5.5 km/h 55% 0.0 mm
17:59 17.2 °C 8.0 °C 1016.8 hPa West 5.5 km/h 5.5 km/h 54% 0.0 mm
18:04 17.0 °C 8.0 °C 1016.8 hPa West 5.5 km/h 5.5 km/h 56% 0.0 mm
18:09 17.0 °C 9.0 °C 1016.8 hPa West 5.5 km/h 5.5 km/h 57% 0.0 mm
18:15 16.9 °C 9.0 °C 1016.8 hPa West 5.5 km/h 5.5 km/h 57% 0.0 mm
18:20 16.8 °C 8.0 °C 1018.2 hPa West 5.5 km/h 5.5 km/h 57% 0.0 mm
18:25 16.8 °C 8.0 °C 1018.2 hPa West 5.5 km/h 5.5 km/h 57% 0.0 mm
18:30 16.7 °C 9.0 °C 1018.2 hPa West 5.5 km/h 5.5 km/h 58% 0.0 mm
18:35 16.6 °C 9.0 °C 1018.2 hPa West 5.5 km/h 5.5 km/h 59% 0.0 mm
18:40 16.6 °C 9.0 °C 1018.2 hPa West 5.5 km/h 5.5 km/h 61% 0.0 mm
18:45 16.5 °C 9.0 °C 1018.2 hPa West 5.5 km/h 5.5 km/h 61% 0.0 mm
18:50 16.4 °C 9.0 °C 1018.2 hPa West 5.5 km/h 5.5 km/h 62% 0.0 mm
18:55 16.2 °C 9.0 °C 1018.2 hPa West 5.5 km/h 5.5 km/h 63% 0.0 mm
19:00 15.9 °C 9.0 °C 1018.2 hPa West 5.5 km/h 5.5 km/h 64% 0.0 mm
19:05 15.7 °C 9.0 °C 1018.2 hPa West 5.5 km/h 5.5 km/h 66% 0.0 mm
19:06 15.7 °C 9.0 °C 1018.2 hPa West 5.5 km/h 5.5 km/h 66% 0.0 mm
19:11 15.5 °C 10.0 °C 1018.2 hPa Calm     67% 0.0 mm
19:16 15.1 °C 9.0 °C 1018.2 hPa Calm     68% 0.0 mm
19:21 14.8 °C 9.0 °C 1018.2 hPa Calm     70% 0.0 mm
19:26 14.6 °C 9.0 °C 1018.2 hPa Calm     70% 0.0 mm
19:31 14.4 °C 9.0 °C 1018.2 hPa Calm     71% 0.0 mm
19:36 14.1 °C 9.0 °C 1018.2 hPa Calm     72% 0.0 mm
19:41 14.0 °C 9.0 °C 1018.2 hPa Calm     73% 0.0 mm
19:46 13.8 °C 9.0 °C 1018.2 hPa Calm     74% 0.0 mm
19:51 13.7 °C 9.0 °C 1018.2 hPa Calm     74% 0.0 mm
19:56 13.7 °C 10.0 °C 1018.2 hPa Calm     75% 0.0 mm
20:01 13.7 °C 10.0 °C 1018.2 hPa Calm     75% 0.0 mm
20:06 13.7 °C 10.0 °C 1018.2 hPa Calm     76% 0.0 mm
20:11 13.7 °C 10.0 °C 1018.2 hPa Calm     77% 0.0 mm
20:16 13.7 °C 10.0 °C 1018.2 hPa Calm     77% 0.0 mm
20:21 13.7 °C 10.0 °C 1018.2 hPa Calm     78% 0.0 mm
20:26 13.8 °C 10.0 °C 1018.2 hPa Calm     78% 0.0 mm
20:31 13.7 °C 10.0 °C 1018.2 hPa Calm     78% 0.0 mm
20:36 13.7 °C 10.0 °C 1018.2 hPa Calm     79% 0.0 mm
20:41 13.6 °C 10.0 °C 1018.2 hPa Calm     79% 0.0 mm
20:46 13.6 °C 11.0 °C 1018.8 hPa Calm     80% 0.0 mm
20:52 13.5 °C 11.0 °C 1018.8 hPa Calm     80% 0.0 mm
20:57 13.5 °C 11.0 °C 1018.8 hPa Calm     80% 0.0 mm
20:59 13.6 °C 11.0 °C 1018.8 hPa Calm     81% 0.0 mm
21:04 13.7 °C 11.0 °C 1018.2 hPa Calm     81% 0.0 mm
21:09 13.8 °C 11.0 °C 1018.2 hPa Calm     81% 0.0 mm
21:14 13.7 °C 11.0 °C 1018.2 hPa Calm     81% 0.0 mm
21:19 13.7 °C 11.0 °C 1018.2 hPa Calm     81% 0.0 mm
21:24 13.6 °C 11.0 °C 1018.2 hPa Calm     82% 0.0 mm
21:29 13.6 °C 11.0 °C 1018.2 hPa Calm     82% 0.0 mm
21:34 13.5 °C 11.0 °C 1018.8 hPa Calm     82% 0.0 mm
21:39 13.5 °C 11.0 °C 1018.8 hPa Calm     82% 0.0 mm
21:44 13.4 °C 11.0 °C 1018.8 hPa Calm     82% 0.0 mm
21:49 13.4 °C 11.0 °C 1018.8 hPa Calm     82% 0.0 mm
21:54 13.5 °C 11.0 °C 1018.8 hPa Calm     82% 0.0 mm
21:59 13.5 °C 11.0 °C 1018.8 hPa Calm     82% 0.0 mm
22:04 13.5 °C 11.0 °C 1018.2 hPa Calm     83% 0.0 mm
22:09 13.6 °C 11.0 °C 1018.2 hPa Calm     83% 0.0 mm
22:15 13.7 °C 11.0 °C 1018.2 hPa Calm     83% 0.0 mm
22:20 13.8 °C 11.0 °C 1018.2 hPa Calm     83% 0.0 mm
22:25 13.9 °C 11.0 °C 1018.2 hPa Calm     83% 0.0 mm
22:30 14.0 °C 11.0 °C 1018.2 hPa Calm     83% 0.0 mm
22:35 14.0 °C 11.0 °C 1018.2 hPa Calm     83% 0.0 mm
22:40 14.0 °C 11.0 °C 1018.2 hPa West 6.1 km/h 6.1 km/h 83% 0.0 mm
22:45 14.0 °C 11.0 °C 1018.2 hPa Calm   6.1 km/h 83% 0.0 mm
22:50 14.0 °C 11.0 °C 1018.2 hPa Calm   5.5 km/h 83% 0.0 mm
22:55 14.0 °C 11.0 °C 1018.2 hPa WSW 5.8 km/h 5.8 km/h 83% 0.0 mm
23:00 14.0 °C 12.0 °C 1018.2 hPa Calm   6.4 km/h 84% 0.0 mm
23:05 13.9 °C 12.0 °C 1018.2 hPa Calm   6.4 km/h 84% 0.0 mm
23:10 13.9 °C 12.0 °C 1018.2 hPa Calm     85% 0.0 mm
23:15 13.9 °C 12.0 °C 1018.2 hPa Calm     85% 0.0 mm
23:20 13.9 °C 12.0 °C 1018.2 hPa Calm     85% 0.0 mm
23:25 13.8 °C 12.0 °C 1018.2 hPa Calm     86% 0.0 mm
23:30 13.8 °C 12.0 °C 1018.2 hPa Calm     86% 0.0 mm
23:35 13.8 °C 12.0 °C 1018.2 hPa Calm     86% 0.0 mm
23:40 13.7 °C 12.0 °C 1018.2 hPa Calm     86% 0.0 mm
23:46 13.7 °C 12.0 °C 1016.8 hPa Calm     86% 0.0 mm
23:51 13.7 °C 12.0 °C 1016.8 hPa Calm     87% 0.0 mm
23:56 13.7 °C 12.0 °C 1016.8 hPa Calm     87% 0.0 mm
Données Historique de Météo Turbie

Mise a jour : 23/06/2018 07:48:17
Généré par Cumulus 1.9.4 (1099)